Presure
178 158 193 144 152 173 175 181 186 168 173 168 173 151 186 183 199 205 154 221 208 190 194 196 185 182 187 190 187 172 172 167 179 187 176 189 198 194 164 201 232 203 197 183
152 158 150 161 150 156 159 154 152 169 157 165 181 196 141 190 175 165 233 233 209 202 192 194 203 200 179 179 191 184 189 180 173 177 170 188 190 210 195 189 186 158 181 178
188 180 188 180 167 183 162 176 161 164 175 173 165 170 139 175 203 174 235 170 213 196 200 208 201 208 194 188 190 186 187 189 182 179 182 190 199 193 185 182 191 186 183 185
149 149 179 183 189 191 162 162 195 170 159 177 151 176 107 149 188 123 83 241 217 210 198 130 89 97 199 201 189 194 190 185 188 184 192 196 194 217 219 183 170 188 187 193
155 152 183 151 180 176 183 182 157 180 168 165 150 191 132 65 84 120 217 257 82 196 114 134 213 206 201 201 195 73 171 190 193 100 198 201 213 210 179 200 198 207 177 195
158 164 155 149 164 159 176 182 185 165 157 197 196 171 242 107 90 136 241 231 261 259 232 221 213 206 205 209 89 205 207 140 185 204 209 222 108 197 182 204 126 218 184 190
154 160 167 200 185 151 166 166 175 169 192 211 186 215 200 216 185 245 245 208 230 201 210 195 187 216 207 211 217 221 223 156 227 241 223 203 214 213 199 164 200 176 198 182
180 174 156 182 191 179 164 153 181 186 212 203 147 213 228 231 245 90 104 245 236 227 239 199 262 244 232 235 229 221 221 207 198 202 226 213 212 192 232 218 202 229 180 193
192 187 177 171 178 164 152 165 190 207 209 198 212 216 107 82 243 112 233 221 228 242 257 253 203 201 209 211 213 196 202 197 177 211 203 210 211 214 199 208 213 234 197 182
188 180 170 175 184 171 186 194 202 202 190 220 225 213 232 146 247 230 226 190 226 238 235 236 241 239 233 224 219 215 219 215 218 215 217 196 191 191 195 159 206 207 199 201
180 178 178 172 183 185 202 207 211 202 215 225 238 252 125 250 165 235 228 221 165 228 232 215 233 230 231 232 234 230 226 220 224 227 228 228 228 226 230 229 216 224 224 222
196 179 186 177 195 198 214 213 210 226 228 240 243 121 92 236 243 242 238 227 238 230 230 234 237 240 244 246 246 251 250 246 219 249 250 242 237 237 241 240 238 237 91 184
188 194 194 190 183 205 215 223 174 194 243 247 240 252 241 249 223 227 232 240 244 249 256 267 281 302 300 297 282 282 282 263 285 300 286 288 284 278 282 237 255 249 241 240
186 196 213 195 209 213 226 234 241 241 242 244 253 259 256 66 220 183 260 272 342 440 414 395 384 378 374 376 383 347 380 369 364 356 378 379 367 259 350 345 369 340 300 265
204 226 201 214 223 237 237 245 239 245 121 218 265 242 243 216 266 278 383 403 398 350 363 356 352 351 359 343 339 330 330 325 338 339 333 334 170 177 391 340 322 339 303 288
207 216 216 234 243 240 246 248 254 258 268 234 244 258 267 290 412 394 372 363 340 332 320 318 311 313 316 330 315 312 315 314 326 322 328 340 292 311 305 297 301 290 279 281
232 228 245 256 241 250 264 266 277 258 240 251 274 423 406 384 355 336 345 334 313 299 292 302 296 311 318 303 311 315 324 320 322 340 336 311 280 270 268 284 266 269 268 274
227 242 254 250 253 262 282 247 249 268 280 445 445 395 364 342 322 312 315 318 305 295 293 292 308 295 298 289 312 307 299 298 305 306 279 272 258 264 250 258 254 253 248 248
255 243 247 257 270 275 256 269 299 447 457 396 373 364 337 317 300 292 292 323 309 318 297 287 286 295 288 296 298 289 286 282 278 273 266 260 265 258 244 252 236 244 233 225
256 264 272 272 283 271 309 437 457 437 373 340 349 323 314 311 296 287 285 296 292 286 292 284 292 292 283 293 293 278 274 269 268 259 241 260 263 245 251 236 234 227 229 234
283 281 281 276 340 415 441 460 457 375 346 326 321 308 305 286 281 282 285 292 290 298 307 280 281 286 276 290 271 260 262 261 267 251 236 251 238 249 236 241 239 226 225 223
280 288 402 456 458 489 433 401 356 347 331 324 305 293 282 285 280 283 282 293 271 285 286 293 284 280 279 292 265 260 263 251 256 256 249 242 234 234 240 229 230 232 231 231
436 450 467 462 461 434 372 330 332 338 334 310 309 294 277 289 289 278 296 291 277 277 274 281 287 283 284 296 262 259 260 258 257 235 237 244 239 238 228 233 227 227 229 229
462 486 498 493 452 345 328 322 322 311 308 298 290 292 282 283 280 275 276 271 278 276 278 285 261 276 294 282 273 258 254 256 249 241 236 249 231 254 231 238 232 237 220 227
475 455 447 372 329 324 314 317 315 305 297 288 288 286 291 284 280 280 283 281 283 283 289 280 283 284 275 294 306 261 249 258 249 247 236 236 243 238 244 247 235 226 224 241
395 366 334 325 325 321 317 303 308 292 293 293 291 297 284 291 286 293 268 280 289 293 300 270 302 298 300 295 296 292 260 251 262 248 247 238 229 241 233 236 240 240 243 237
Wind_Speed
39 63 34 72 75 52 54 54 53 63 59 60 83 81 87 90 90 90 73 86 73 82 83 82 78 65 72 85 88 89 90 82 92 89 87 90 76 74 57 69 67 79 81 79
81 65 76 65 80 75 74 81 82 75 83 82 93 83 92 97 91 85 91 65 74 78 84 83 78 71 79 85 89 93 93 96 90 90 80 83 68 77 74 75 74 62 78 76
36 46 41 58 70 66 84 66 74 80 75 82 93 81 90 79 88 55 76 43 70 83 82 77 73 74 84 88 91 92 92 94 96 91 90 89 86 67 74 79 73 74 82 83
84 86 51 49 57 68 84 85 94 78 90 91 84 105 25 113 83 22 16 70 74 79 73 42 24 37 76 80 90 95 96 97 99 98 96 93 85 76 68 83 71 83 84 83
87 90 54 85 79 72 82 94 92 90 93 92 84 111 75 8 10 16 74 55 19 65 35 37 78 76 85 89 88 17 84 100 99 35 93 89 85 76 69 80 86 82 80 87
80 71 86 84 80 96 80 102 101 98 99 107 97 84 91 34 16 46 64 59 53 55 64 69 74 83 89 94 30 99 102 59 85 92 92 88 39 82 79 82 47 73 89 85
93 93 79 93 92 97 84 99 93 102 124 119 100 106 80 83 60 72 68 45 59 66 68 74 81 84 89 94 95 95 97 64 97 90 82 81 81 84 72 63 83 77 88 89
72 84 93 79 104 90 99 99 109 123 121 115 71 108 103 90 77 3 20 67 65 66 62 76 71 89 88 92 94 90 91 86 83 85 88 88 86 78 89 82 88 63 82 99
97 89 72 90 83 91 96 107 132 134 119 114 111 117 8 1 83 19 73 72 71 75 78 73 81 83 83 83 85 79 90 92 84 90 91 92 92 87 90 86 88 80 90 86
101 78 85 80 105 90 128 133 137 123 105 129 121 98 93 42 86 84 81 58 76 83 78 78 81 83 87 91 91 92 95 93 95 95 96 99 97 94 91 69 92 88 90 85
82 80 89 92 119 123 137 137 129 125 128 138 130 102 34 96 61 89 85 84 57 89 91 85 92 93 94 96 100 98 102 99 106 107 106 109 111 109 112 112 104 106 100 97
121 95 119 107 138 134 135 131 132 140 140 129 124 38 22 98 101 100 97 93 100 100 100 101 104 106 107 108 108 108 105 107 99 118 116 118 116 115 117 118 118 115 34 79
119 133 137 128 116 130 137 139 86 114 129 116 122 109 102 107 96 96 99 101 104 108 112 115 117 117 117 117 115 116 113 116 125 126 125 128 130 123 122 107 121 117 115 111
118 142 144 126 137 141 141 143 135 129 128 127 120 118 108 15 87 68 108 112 88 32 33 36 38 40 43 46 45 63 53 59 64 65 35 34 62 50 68 72 53 61 86 79
147 145 127 140 147 140 140 134 133 129 43 105 120 109 110 96 119 121 56 23 18 35 23 22 22 25 21 24 16 21 26 37 38 29 31 31 26 30 56 64 63 57 62 76
129 143 147 150 144 143 140 133 133 125 121 113 117 120 121 122 33 30 28 19 18 16 15 18 18 16 21 16 16 24 33 39 35 37 38 32 24 21 23 25 30 32 36 45
154 153 157 139 142 142 133 135 127 115 111 118 123 54 26 14 17 28 17 11 13 13 24 16 17 20 6 11 14 22 10 6 5 8 25 35 36 28 23 24 28 28 27 33
154 159 149 143 141 137 132 115 117 120 121 37 28 13 12 6 13 31 18 17 19 25 24 20 12 10 8 14 12 8 4 6 14 33 45 45 35 42 37 35 35 34 34 43
153 140 148 146 144 138 121 129 131 32 18 15 17 12 15 18 23 21 27 10 10 19 22 18 16 10 11 9 9 19 17 23 41 45 46 42 43 41 38 39 37 36 46 52
150 148 141 139 137 132 126 39 23 14 19 23 11 13 16 15 21 20 24 16 14 23 21 21 16 15 16 13 21 32 33 38 46 44 35 41 42 40 33 39 45 49 53 51
142 140 136 135 108 52 43 32 20 20 24 32 20 14 8 15 28 30 23 20 14 16 17 24 20 18 21 19 38 37 40 41 42 49 37 45 42 39 42 41 50 53 56 55
135 135 74 36 35 29 19 19 19 28 30 27 24 19 29 28 31 33 27 19 22 19 22 22 25 23 26 25 45 44 46 42 47 48 51 50 43 47 48 49 54 56 62 61
47 40 36 31 15 19 24 24 29 35 31 29 32 30 29 34 35 28 22 17 20 21 23 25 24 28 27 28 51 51 52 53 52 44 50 52 56 56 51 55 54 60 64 67
30 24 22 14 23 32 31 34 30 26 30 29 26 32 32 35 31 30 27 25 25 25 25 29 28 28 33 36 58 57 58 58 55 56 49 51 50 53 52 57 58 65 43 47
13 11 19 36 33 34 30 29 32 25 31 29 28 28 35 34 31 31 31 30 31 31 34 32 34 37 37 35 38 63 56 64 60 60 50 48 62 57 60 64 55 51 48 67
25 37 33 33 34 34 31 24 30 27 26 28 30 32 32 37 33 36 29 34 36 32 31 37 35 37 39 42 43 58 69 62 72 64 62 51 37 53 46 54 65 57 62 56
Wind_Direction
301 297 282 314 306 275 282 318 324 285 304 295 313 295 320 314 309 300 297 290 277 274 273 274 275 271 276 269 263 268 270 276 272 274 277 278 279 281 265 269 267 260 262 271
304 288 304 288 305 294 288 299 301 297 292 290 321 327 296 314 297 295 291 281 269 269 271 273 273 261 264 267 262 264 265 267 272 273 277 276 274 284 274 271 270 256 270 273
312 297 320 303 284 308 288 303 306 288 310 308 300 300 298 310 298 291 287 275 268 268 269 270 267 265 257 262 266 264 264 265 266 271 273 275 278 266 264 270 268 267 269 268
298 299 288 307 314 307 282 289 326 287 293 314 300 302 311 295 298 317 273 273 266 266 266 266 311 317 266 264 263 264 263 264 266 269 270 273 275 272 258 265 276 267 270 262
288 297 300 298 317 308 326 321 293 312 292 292 295 306 298 296 308 297 280 287 293 270 286 275 270 265 264 262 259 276 259 262 265 277 270 271 269 262 270 254 255 253 276 260
296 298 296 304 289 289 313 322 320 287 293 319 315 315 325 301 255 297 287 281 286 268 254 253 257 262 264 264 270 263 262 265 268 269 269 268 274 262 256 258 263 257 266 264
287 298 291 327 325 297 289 303 305 303 317 317 305 313 310 310 303 295 292 286 271 272 272 264 271 254 259 263 264 266 267 267 269 272 268 262 266 264 262 256 245 275 255 268
318 296 297 314 325 302 284 291 311 313 315 311 313 314 320 311 298 247 314 296 290 276 279 266 269 260 264 263 265 268 269 269 267 267 270 268 267 264 266 262 251 256 268 258
322 321 297 292 309 284 291 296 315 313 312 310 314 315 281 146 298 305 294 285 286 290 292 283 268 267 267 266 266 266 268 268 271 265 265 266 265 265 261 263 265 268 256 266
322 311 297 295 316 284 312 312 312 310 304 310 313 310 311 293 298 292 289 290 288 291 285 282 277 271 268 265 264 265 268 264 267 266 268 264 266 268 268 264 260 262 261 259
309 306 307 295 312 310 312 310 308 307 308 310 310 308 297 300 296 292 292 291 288 289 287 283 279 275 273 270 268 266 265 267 267 266 264 263 264 263 263 263 264 262 261 262
311 306 312 312 308 310 310 309 309 310 310 308 305 288 317 296 293 293 293 292 287 286 284 282 280 276 274 272 271 270 267 270 266 263 262 260 260 261 261 261 262 263 278 264
313 312 311 309 311 310 310 311 309 308 305 306 304 304 297 292 294 293 292 289 288 285 283 282 280 278 274 271 271 270 269 267 268 266 264 262 262 260 260 259 259 260 262 261
308 309 308 309 308 309 310 310 309 308 306 303 303 299 298 269 293 293 291 292 290 280 273 274 276 274 274 272 273 267 268 255 259 262 261 257 258 238 239 250 239 237 251 261
305 304 304 310 309 307 309 308 307 304 301 299 299 299 298 295 296 296 295 284 279 287 289 289 289 283 295 289 281 265 253 253 266 252 244 234 267 266 230 235 244 231 225 235
306 308 307 309 307 308 306 306 302 301 299 299 298 297 296 296 292 288 294 288 313 308 306 291 315 294 270 260 248 244 253 255 264 247 237 228 207 195 206 221 219 210 220 225
307 309 307 305 305 303 305 301 299 299 298 296 295 291 286 295 305 302 306 285 294 274 273 270 272 287 337 293 297 260 262 272 318 263 202 166 153 156 153 162 182 188 195 203
309 306 303 303 303 303 301 300 299 298 298 271 274 268 265 238 269 286 284 269 250 252 260 266 273 260 250 261 312 213 187 126 173 157 155 160 194 167 192 169 185 185 187 193
302 305 304 302 300 300 302 299 299 288 248 271 280 221 213 229 267 272 289 304 269 255 238 249 261 229 246 255 243 173 168 157 166 167 173 183 171 180 195 180 201 194 203 214
300 299 296 298 298 299 299 293 257 223 212 253 203 215 227 231 274 272 285 272 247 261 255 251 249 207 217 233 183 164 165 160 165 172 199 176 170 187 178 198 198 208 213 218
296 296 298 299 296 288 285 266 239 184 193 241 213 207 199 264 277 277 273 272 273 278 251 241 237 214 218 214 181 182 181 178 176 180 210 184 204 182 201 201 210 218 224 230
296 296 290 277 273 280 227 196 192 198 203 206 207 227 241 245 254 261 274 256 264 260 255 248 237 228 224 201 187 191 187 192 182 189 192 203 212 209 203 216 216 220 223 230
281 283 278 270 242 180 170 211 209 203 201 202 210 226 257 238 241 262 261 252 260 263 257 259 251 230 228 211 194 197 194 194 188 210 207 205 210 208 223 218 223 224 230 232
283 278 277 259 173 159 189 215 216 220 197 217 240 221 243 247 254 266 259 259 258 261 262 251 246 245 240 216 199 203 204 199 203 210 218 210 229 218 227 222 233 227 247 247
251 149 137 139 179 194 219 211 209 218 212 240 241 240 236 247 262 263 267 266 270 267 262 255 255 250 244 242 229 206 218 207 211 214 227 222 218 229 227 227 240 249 248 246
119 136 159 179 188 196 205 221 210 224 227 245 248 238 255 258 270 266 267 276 277 272 266 259 261 250 243 239 232 216 213 224 211 218 222 232 254 231 242 240 238 244 246 252